COSMOS 2251 DEB, 35028

Orbit data source: Space-Track

COSMOS 2251 DEB, 35028 is space debris in LEO originally from a launch on Wed, 16 Jun 1993 UTC launched from the Plesetsk Missile And Space Complex (PKMTR). The debris from Iridium 33, an American commercial communications satellite, has been tracked extensively since its accidental collision with the defunct Russian satellite Cosmos 2251 in 2009. This event, occurring at high speed in low Earth orbit (LEO), generated thousands of pieces of space debris, significantly increasing the risk of further collisions. The Iridium 33 debris cloud has impacted space traffic management and orbital debris mitigation strategies, making it a subject of ongoing study in space situational awareness.

Loading next visibility...
Identifier
35028, 1993-036AGR
Orbit
LEO
Country
Flag of CISCIS
Related business
Manufacturer
Unknown
Mission
Spacecraft
Bus & Motor
Unknown
Mass
Unknown
Launch date (UTC)
1993-06-16 (32 years ago)
Launch vehicle
Unknown
Launch site
Plesetsk Missile And Space Complex (PKMTR)
Object type
Payload
Rocket body
Debris
Shape & HBR
Unknown shape, 0.1 m
Radar Cross Section
Small (<0.1 m²)

Expand to show TLE details & history
Last TLE update: 2 days ago

TLE from 2 days ago
0 COSMOS 2251 DEB
1 35028U 93036AGR 25345.56083013  .00000822  00000-0  18280-3 0  9998
2 35028  74.0385 273.2172 0082432  47.2226 131.7918 14.56568093882682
Epoch: 2025-12-11T13:27Z
TLE epoch observation values (Epoch: 2025-12-11T13:27:35.723Z)
Latitude
0.16449°
Longitude
170.75651°
Altitude
746.072 km
Speed
7.461 km/s
True Right ascension
06h 12m 40s
True Declination
0° 09' 49"
Sunlit
Object was in full shadow at epoch
Visualization orbit readout
Latitude
Unknown
Longitude
Unknown
Altitude
Unknown
Speed
Unknown
Apparent Right ascension
Unknown
Apparent Declination
Unknown
Sunlit
N/A
Visualization observer readout
Local Sidereal Time
07:35:01
Azimuth
Unknown
Elevation
Unknown
Doppler factor
Unknown
Orbital elements
Apogee altitude
760.24 km
Perigee altitude
643.516 km
Semi-major axis
7,080.015 km
Eccentricity
0.00824
Inclination
74.0385°
RAAN
273.2172°
Arg. of periapsis
47.2226°
True anomaly
132.49125°
Mean anomaly
131.7918°
Eccentric anomaly
132.142°
Mean motion
3.64327 °/min
Orbital period
98.81 mins
BSTAR
0.0001828
Loading maneuver chart data...
Computing Atmospheric mass density...

Documentation

Showing up to 5 results
|